When you browse on this site, cookies collect data to enhance your experience and personalize the content and advertising you see.
Visit our Privacy Policy to learn more. By continuing to use the site, you agree to this use of cookies and data.
  • In Romania
  • List of Countries
  • For 7 days
  • Water Temperature
  • Weather Map
  • Weather Widgets
  • user-avatar
    Login

    Hourly Weather Carambei

    Today, 14 December, Saturday

    Time Temperature Precipitation Wind Pressure Humidity
    00:00 +15°C° 0 mm 5 mps 668 mmHg 91%
    01:00 +15°C° 0 mm 5 mps 668 mmHg 90%
    02:00 +15°C° 0 mm 4 mps 667 mmHg 90%
    03:00 +15°C° 0 mm 4 mps 667 mmHg 90%
    04:00 +15°C° 0 mm 4 mps 667 mmHg 91%
    05:00 +16°C° 0 mm 3 mps 667 mmHg 92%
    06:00 +16°C° 0 mm 3 mps 668 mmHg 94%
    07:00 +17°C° 0 mm 3 mps 668 mmHg 89%
    08:00 +18°C° 0 mm 4 mps 669 mmHg 85%
    09:00 +20°C° 0 mm 4 mps 670 mmHg 81%
    10:00 +21°C° 0 mm 4 mps 670 mmHg 76%
    11:00 +22°C° 0 mm 3 mps 670 mmHg 72%
    12:00 +25°C° 0 mm 3 mps 670 mmHg 68%
    13:00 +25°C° 0.2 mm 3 mps 669 mmHg 68%
    14:00 +25°C° 0.2 mm 3 mps 669 mmHg 68%
    15:00 +26°C° 0.2 mm 3 mps 668 mmHg 67%
    16:00 +25°C° 0.4 mm 3 mps 668 mmHg 73%
    17:00 +24°C° 0.4 mm 3 mps 668 mmHg 79%
    18:00 +22°C° 0.4 mm 3 mps 667 mmHg 85%
    19:00 +20°C° 0.1 mm 3 mps 668 mmHg 88%
    20:00 +19°C° 0.1 mm 4 mps 668 mmHg 91%
    21:00 +18°C° 0.1 mm 4 mps 668 mmHg 93%
    22:00 +18°C° 0.5 mm 4 mps 668 mmHg 94%
    23:00 +18°C° 0.5 mm 4 mps 668 mmHg 94%

    Tomorrow, 15 December, Sunday

    Time Temperature Precipitation Wind Pressure Humidity
    00:00 +18°C° 0.5 mm 3 mps 668 mmHg 95%
    01:00 +18°C° 0.2 mm 3 mps 668 mmHg 96%
    02:00 +18°C° 0.2 mm 2 mps 667 mmHg 96%
    03:00 +18°C° 0.2 mm 2 mps 667 mmHg 97%
    04:00 +18°C° 0 mm 2 mps 666 mmHg 97%
    05:00 +18°C° 0 mm 2 mps 666 mmHg 97%
    06:00 +17°C° 0 mm 2 mps 666 mmHg 96%
    07:00 +18°C° 0 mm 2 mps 666 mmHg 92%
    08:00 +19°C° 0 mm 3 mps 667 mmHg 89%
    09:00 +20°C° 0 mm 3 mps 667 mmHg 85%
    10:00 +21°C° 0.1 mm 3 mps 667 mmHg 81%
    11:00 +22°C° 0.1 mm 4 mps 667 mmHg 78%
    12:00 +22°C° 0.1 mm 4 mps 667 mmHg 74%
    13:00 +23°C° 0.5 mm 4 mps 666 mmHg 75%
    14:00 +25°C° 0.5 mm 5 mps 666 mmHg 75%
    15:00 +25°C° 0.5 mm 5 mps 666 mmHg 75%
    16:00 +25°C° 0.6 mm 4 mps 665 mmHg 79%
    17:00 +23°C° 0.6 mm 4 mps 665 mmHg 82%
    18:00 +22°C° 0.6 mm 3 mps 665 mmHg 86%
    19:00 +21°C° 0.7 mm 3 mps 665 mmHg 88%
    20:00 +21°C° 0.7 mm 3 mps 665 mmHg 89%
    21:00 +20°C° 0.7 mm 2 mps 665 mmHg 91%
    22:00 +20°C° 0.3 mm 3 mps 665 mmHg 91%
    23:00 +20°C° 0.3 mm 4 mps 665 mmHg 91%

    Day after tomorrow, 16 December, Monday

    Time Temperature Precipitation Wind Pressure Humidity
    00:00 +20°C° 0.3 mm 4 mps 665 mmHg 91%
    01:00 +20°C° 0.6 mm 4 mps 664 mmHg 92%
    02:00 +19°C° 0.6 mm 4 mps 664 mmHg 93%
    03:00 +19°C° 0.6 mm 3 mps 663 mmHg 93%
    04:00 +19°C° 1.4 mm 3 mps 663 mmHg 95%
    05:00 +19°C° 1.4 mm 2 mps 663 mmHg 96%
    06:00 +19°C° 1.4 mm 2 mps 663 mmHg 97%
    07:00 +19°C° 0.6 mm 2 mps 663 mmHg 95%
    08:00 +20°C° 0.6 mm 3 mps 664 mmHg 92%
    09:00 +21°C° 0.6 mm 3 mps 664 mmHg 90%
    10:00 +22°C° 1.2 mm 4 mps 664 mmHg 88%
    11:00 +23°C° 1.2 mm 4 mps 664 mmHg 87%
    12:00 +25°C° 1.2 mm 4 mps 664 mmHg 85%
    13:00 +22°C° 4.6 mm 4 mps 663 mmHg 89%
    14:00 +21°C° 4.6 mm 3 mps 663 mmHg 93%
    15:00 +19°C° 4.6 mm 2 mps 662 mmHg 98%
    16:00 +19°C° 7.5 mm 2 mps 662 mmHg 98%
    17:00 +19°C° 7.5 mm 2 mps 662 mmHg 98%
    18:00 +19°C° 7.5 mm 2 mps 662 mmHg 98%
    19:00 +18°C° 8.2 mm 2 mps 662 mmHg 98%
    20:00 +19°C° 8.2 mm 1 mps 662 mmHg 98%
    21:00 +18°C° 8.2 mm 1 mps 663 mmHg 99%
    22:00 +18°C° 1.9 mm 1 mps 662 mmHg 98%
    23:00 +18°C° 1.9 mm 1 mps 662 mmHg 98%

    17 December, Tuesday

    Time Temperature Precipitation Wind Pressure Humidity
    00:00 +17°C° 1.9 mm 2 mps 662 mmHg 98%
    01:00 +18°C° 1.6 mm 2 mps 662 mmHg 98%
    02:00 +18°C° 1.6 mm 2 mps 662 mmHg 98%
    03:00 +18°C° 1.6 mm 2 mps 661 mmHg 98%
    04:00 +18°C° 3.2 mm 2 mps 661 mmHg 98%
    05:00 +18°C° 3.2 mm 2 mps 661 mmHg 98%
    06:00 +18°C° 3.2 mm 2 mps 662 mmHg 98%
    07:00 +18°C° 2.9 mm 2 mps 662 mmHg 98%
    08:00 +18°C° 2.9 mm 3 mps 662 mmHg 97%
    09:00 +19°C° 2.9 mm 3 mps 662 mmHg 97%
    10:00 +19°C° 0.8 mm 4 mps 662 mmHg 94%
    11:00 +20°C° 0.8 mm 4 mps 662 mmHg 91%
    12:00 +21°C° 0.8 mm 5 mps 662 mmHg 89%
    13:00 +20°C° 0.4 mm 4 mps 662 mmHg 90%
    14:00 +20°C° 0.4 mm 3 mps 661 mmHg 91%
    15:00 +19°C° 0.4 mm 3 mps 661 mmHg 92%
    16:00 +19°C° 1.8 mm 2 mps 661 mmHg 94%
    17:00 +19°C° 1.8 mm 2 mps 661 mmHg 96%
    18:00 +19°C° 1.8 mm 1 mps 661 mmHg 98%
    19:00 +19°C° 1.1 mm 1 mps 661 mmHg 98%
    20:00 +19°C° 1.1 mm 1 mps 662 mmHg 98%
    21:00 +19°C° 1.1 mm 1 mps 662 mmHg 98%
    22:00 +17°C° 1.7 mm 2 mps 663 mmHg 98%
    23:00 +17°C° 1.7 mm 3 mps 663 mmHg 98%

    18 December, Wednesday

    Time Temperature Precipitation Wind Pressure Humidity
    00:00 +17°C° 1.7 mm 4 mps 663 mmHg 97%
    01:00 +15°C° 0.7 mm 4 mps 663 mmHg 97%
    02:00 +14°C° 0.7 mm 4 mps 663 mmHg 97%
    03:00 +13°C° 0.7 mm 4 mps 663 mmHg 96%
    04:00 +13°C° 0 mm 3 mps 663 mmHg 96%
    05:00 +13°C° 0 mm 3 mps 664 mmHg 96%
    06:00 +13°C° 0 mm 3 mps 664 mmHg 96%
    07:00 +14°C° 0.1 mm 3 mps 665 mmHg 95%
    08:00 +14°C° 0.1 mm 3 mps 665 mmHg 95%
    09:00 +14°C° 0.1 mm 3 mps 666 mmHg 94%
    10:00 +14°C° 0.3 mm 3 mps 666 mmHg 94%
    11:00 +14°C° 0.3 mm 3 mps 666 mmHg 94%
    12:00 +14°C° 0.3 mm 3 mps 666 mmHg 94%
    13:00 +16°C° 0 mm 3 mps 666 mmHg 92%
    14:00 +15°C° 0 mm 4 mps 666 mmHg 89%
    15:00 +17°C° 0 mm 4 mps 666 mmHg 86%
    16:00 +17°C° 0 mm 4 mps 666 mmHg 86%
    17:00 +17°C° 0 mm 4 mps 666 mmHg 86%
    18:00 +15°C° 0 mm 4 mps 666 mmHg 86%
    19:00 +15°C° 0 mm 4 mps 666 mmHg 87%
    20:00 +14°C° 0 mm 4 mps 666 mmHg 87%
    21:00 +13°C° 0 mm 4 mps 666 mmHg 88%
    22:00 +13°C° 0 mm 4 mps 666 mmHg 88%
    23:00 +13°C° 0 mm 3 mps 666 mmHg 88%

    19 December, Thursday

    Time Temperature Precipitation Wind Pressure Humidity
    00:00 +13°C° 0 mm 3 mps 666 mmHg 89%
    01:00 +13°C° 0 mm 3 mps 666 mmHg 89%
    02:00 +13°C° 0 mm 3 mps 666 mmHg 90%
    03:00 +13°C° 0 mm 3 mps 665 mmHg 91%
    04:00 +13°C° 0 mm 3 mps 665 mmHg 91%
    05:00 +13°C° 0 mm 3 mps 666 mmHg 92%
    06:00 +14°C° 0 mm 3 mps 666 mmHg 93%
    07:00 +16°C° 0 mm 3 mps 666 mmHg 91%
    08:00 +16°C° 0 mm 3 mps 667 mmHg 89%
    09:00 +17°C° 0 mm 3 mps 667 mmHg 86%
    10:00 +18°C° 0 mm 3 mps 667 mmHg 86%
    11:00 +18°C° 0 mm 2 mps 667 mmHg 86%
    12:00 +18°C° 0 mm 2 mps 667 mmHg 86%
    13:00 +19°C° 0 mm 2 mps 667 mmHg 86%
    14:00 +19°C° 0 mm 2 mps 666 mmHg 86%
    15:00 +19°C° 0 mm 3 mps 666 mmHg 87%
    16:00 +19°C° 0 mm 3 mps 666 mmHg 86%
    17:00 +19°C° 0 mm 3 mps 666 mmHg 86%
    18:00 +19°C° 0 mm 3 mps 666 mmHg 86%
    19:00 +19°C° 0 mm 3 mps 666 mmHg 87%
    20:00 +18°C° 0 mm 3 mps 666 mmHg 89%
    21:00 +17°C° 0 mm 3 mps 666 mmHg 90%
    22:00 +17°C° 0 mm 3 mps 666 mmHg 91%
    23:00 +17°C° 0 mm 3 mps 666 mmHg 92%
    Show more